Location: Clermont
(50.2608°N, 4.3172°E)
Time: 10:40:36
(UTC+00:00)

NOSS 2 (A) - Pass Details

Date: 13 August 2020
Orbit: 273 x 1575 km, 63.3° (Epoch: 06 February)

Event Time Altitude Azimuth Distance (km) Brightness Sun altitude
Rises 19:49:25 0° 316° (NW) 2,191 10.3 -7.1°
Reaches altitude 10° 19:51:33 10° 317° (NW) 1,254 8.7 -7.4°
Maximum altitude 19:54:14 87° 47° (NE) 303 4.0 -7.8°
Enters shadow 19:56:24 12° 136° (SE) 1,020 6.1 -8.0°
